Weather in Proryvnoye

Russia / Kurgan Oblast     54°22′12″N   64°23′18″E
temp.,
°C
wind,
m/s
gust,
m/s
humid.,
%
clouds,
%
prec.,
mm/h
press.,
hPa
HPBL,
m
21 april, wed
wed2123:00+3wsw35460 0.0 103066
02:00+1w49540 0.0 1030150
05:00+1nw34660 0.0 103054
08:00+5nnw46600 0.0 1031265
11:00+10nnw45440 0.0 10321025
14:00+12nnw45375 0.0 10321727
17:00+13n34365 0.0 10321831
20:00+10nne22495 0.0 103410
22 april, thu
thu2223:00+7ese36645 0.0 1034105
02:00+6sse35715 0.0 103670
05:00+4sse34755 0.0 103748
08:00+7sse46635 0.0 1038268
11:00+12sse554597 0.0 10381038
14:00+14sse5638100 0.0 10371811
17:00+15s5637100 0.0 10371965
20:00+11sse4751100 0.0 1037133
23 april, fri
fri2323:00+9sse4958100 0.0 1037196
02:00+8sse51258100 0.0 1036329
05:00+6sse51259100 0.0 1037296
08:00+7sse61153100 0.0 1037373
11:00+10sse6840100 0.0 1036672
14:00+14sse7832100 0.0 10351527
17:00+14sse673289 0.0 10341842
20:00+12sse51039100 0.0 1033251
24 april, sat
sat2423:00+10sse51141100 0.0 1032279
02:00+8sse51147100 0.0 1031265
05:00+7sse51053100 0.0 1030237
08:00+8sse51050100 0.0 1029335
11:00+11sse71039100 0.0 1028711
14:00+11sse71038100 0.0 10271056
17:00+13sse71030100 0.0 10251659
20:00+10sse3742100 0.0 1024227
25 april, sun
sun2523:00+9se6124372 0.0 1022524
02:00+7se7145093 0.0 1019412
05:00+7se7154899 0.0 1017469
08:00+9s71145100 0.0 1016661
11:00+9ssw5961100 0.0 1015613
14:00+10sw81169100 0.1 10161304
17:00+14wsw714515 0.1 10161778
20:00+12wsw5106220 0.0 1016329